BMCB-6 Weather Reports


time (UTC)temp
C
wind
direction
speed
KPH
gust
KPH
rain 1hr
cm
rain 24hr
cm
rain mn
cm
humidity
%
barometer
mb
20260507095010 10 0 0.0 0.0 0.00 0.00 0.00 83 1018.0
20260507094011 10 0 0.0 0.0 0.00 0.00 0.00 84 1017.9
20260507093007 10 0 0.0 0.0 0.00 0.00 0.00 85 1017.8
20260507092007 10 0 0.0 0.0 0.00 0.00 0.00 85 1017.8
20260507091007 10 0 0.0 0.0 0.00 0.00 0.00 86 1017.8
20260507085007 9 0 0.0 0.0 0.00 0.00 0.00 88 1017.7
20260507084007 8 0 0.0 0.0 0.00 0.00 0.00 89 1017.7
20260507083007 8 0 0.0 0.0 0.00 0.00 0.00 88 1017.7
20260507081007 8 0 0.0 0.0 0.00 0.00 0.00 90 1017.6
20260507080007 8 0 0.0 0.0 0.00 0.00 0.00 92 1017.5
20260507075007 8 0 0.0 0.0 0.00 0.00 0.00 92 1017.5
20260507074008 8 0 0.0 0.0 0.00 0.00 0.00 92 1017.5
20260507073007 8 0 0.0 0.0 0.00 0.00 0.00 93 1017.4
20260507072007 7 0 0.0 0.0 0.00 0.00 0.00 93 1017.4
20260507071007 7 0 0.0 0.0 0.00 0.00 0.00 95 1017.4
20260507070010 7 0 0.0 0.0 0.00 0.00 0.00 95 1017.3
20260507064007 7 0 0.0 0.0 0.00 0.00 0.00 98 1017.2
20260507062007 6 0 0.0 0.0 0.00 0.00 0.00 10 1017.1
20260507061007 6 0 0.0 0.0 0.00 0.00 0.00 10 1017.0
20260507054007 6 0 0.0 0.0 0.00 0.00 0.00 10 1016.7
20260507052007 6 0 0.0 0.0 0.00 0.00 0.00 10 1016.6
20260507051010 6 0 0.0 0.0 0.00 0.00 0.00 10 1016.4
20260507050006 6 0 0.0 0.0 0.00 0.00 0.00 10 1016.3
20260507044007 6 0 0.0 0.0 0.00 0.00 0.00 10 1016.1
20260507041007 6 0 0.0 0.0 0.00 0.00 0.00 10 1016.0
20260507040007 6 0 0.0 0.0 0.00 0.00 0.00 10 1015.9
20260507035007 6 0 0.0 0.0 0.00 0.00 0.00 10 1015.9
20260507034007 6 0 0.0 0.0 0.00 0.00 0.00 10 1015.8
20260507033007 6 0 0.0 0.0 0.00 0.00 0.00 10 1015.7
20260507032007 6 0 0.0 0.0 0.00 0.00 0.00 10 1015.7
20260507031007 6 0 0.0 0.0 0.00 0.00 0.00 10 1015.6
20260507025007 6 0 0.0 0.0 0.00 0.00 0.00 10 1015.5
20260507024007 6 0 0.0 0.0 0.00 0.00 0.00 10 1015.5
20260507023007 6 0 0.0 0.0 0.00 0.00 0.00 10 1015.5
20260507022007 6 0 0.0 0.0 0.00 0.00 0.00 10 1015.4
20260507021006 6 0 0.0 0.0 0.00 0.00 0.00 10 1015.3
20260507020006 6 0 0.0 0.0 0.00 0.00 0.00 10 1015.2
20260507015007 6 0 0.0 0.0 0.00 0.00 0.00 10 1015.2
20260507014007 6 0 0.0 0.0 0.00 0.00 0.00 10 1015.1
20260507013007 6 0 0.0 0.0 0.00 0.00 0.00 10 1015.1
20260507012007 6 0 0.0 0.0 0.00 0.00 0.00 10 1015.1
20260507011007 6 0 0.0 0.0 0.00 0.00 0.00 10 1015.1
20260507010006 6 0 0.0 0.0 0.00 0.00 0.00 10 1015.0
20260507005006 6 0 0.0 0.0 0.00 0.00 0.00 10 1015.1
20260507004008 6 0 0.0 0.0 0.00 0.00 0.00 10 1015.0
20260507003008 6 0 0.0 0.0 0.00 0.00 0.00 10 1015.0
20260507000007 6 0 0.0 0.0 0.00 0.00 0.00 10 1014.9
20260506235008 6 0 0.0 0.0 0.00 0.00 0.00 10 1014.9
20260506234008 6 0 0.0 0.0 0.00 0.00 0.00 10 1014.9
20260506233008 6 0 0.0 0.0 0.00 0.00 0.00 99 1014.9
20260506232008 6 0 0.0 0.0 0.00 0.00 0.00 99 1014.8
20260506231007 5 0 0.0 0.0 0.00 0.00 0.00 99 1014.8
20260506230008 5 0 0.0 0.0 0.00 0.00 0.00 99 1014.7
20260506225008 5 0 0.0 0.0 0.00 0.00 0.00 99 1014.6
20260506224007 6 0 0.0 0.0 0.00 0.00 0.00 99 1014.5
20260506222009 6 0 0.0 0.0 0.00 0.00 0.00 99 1014.4
20260506221008 6 0 0.0 0.0 0.00 0.00 0.00 99 1014.3
20260506220008 6 0 0.0 0.0 0.00 0.00 0.00 99 1014.1
20260506214008 6 0 0.0 0.0 0.00 0.00 0.00 99 1014.0
20260506213008 7 0 0.0 0.0 0.00 0.00 0.00 99 1013.9
20260506212008 7 0 0.0 0.0 0.00 0.00 0.00 99 1013.8
20260506210007 7 0 0.0 0.0 0.00 0.00 0.00 99 1013.6
20260506205008 7 0 0.0 0.0 0.00 0.00 0.00 99 1013.4
20260506204007 7 0 0.0 0.0 0.00 0.00 0.00 99 1013.3
20260506203008 7 0 0.0 0.0 0.00 0.00 0.00 99 1013.2
20260506202007 8 0 0.0 0.0 0.00 0.00 0.00 99 1013.1
20260506201008 8 0 0.0 0.0 0.00 0.00 0.00 99 1012.9
20260506200008 8 0 0.0 0.0 0.00 0.00 0.00 99 1012.8
20260506195008 8 0 0.0 0.0 0.00 0.00 0.00 99 1012.7
20260506194008 8 0 0.0 0.0 0.00 0.00 0.00 99 1012.6
20260506193008 8 0 0.0 0.0 0.00 0.00 0.00 98 1012.6
20260506192008 8 0 0.0 0.0 0.00 0.00 0.00 98 1012.5
20260506191008 8 0 0.0 0.0 0.00 0.00 0.00 98 1012.4
20260506190007 8 0 0.0 0.0 0.00 0.00 0.00 97 1012.4
20260506185008 8 0 0.0 0.0 0.00 0.00 0.00 97 1012.4
20260506184007 8 0 0.0 0.0 0.00 0.00 0.00 98 1012.3
20260506183008 8 0 0.0 0.0 0.00 0.00 0.00 98 1012.2
20260506182008 9 0 0.0 0.0 0.00 0.00 0.00 98 1012.0
20260506175008 9 0 0.0 0.0 0.00 0.00 0.00 97 1011.6
20260506174008 9 0 0.0 0.0 0.00 0.00 0.00 97 1011.6
20260506173007 9 0 0.0 0.0 0.00 0.00 0.00 97 1011.4
20260506171007 9 0 0.0 0.0 0.00 0.00 0.00 97 1011.3
20260506165007 9 0 0.0 0.0 0.00 0.03 0.00 98 1011.2
20260506162007 9 0 0.0 0.0 0.00 0.03 0.00 97 1011.3
20260506161007 9 0 0.0 0.0 0.00 0.03 0.00 97 1011.3
20260506154008 8 0 0.0 0.0 0.00 0.03 0.00 98 1011.3
20260506153007 8 0 0.0 0.0 0.00 0.03 0.00 98 1011.3
20260506152007 8 0 0.0 0.0 0.00 0.03 0.00 98 1011.2
20260506151008 8 0 0.0 0.0 0.00 0.03 0.00 98 1011.2
20260506150007 8 0 0.0 0.0 0.00 0.03 0.00 98 1011.2
20260506145008 8 0 0.0 0.0 0.00 0.03 0.00 97 1011.2
20260506144007 8 0 0.0 0.0 0.00 0.03 0.00 96 1011.3
20260506142008 9 0 0.0 0.0 0.00 0.03 0.00 96 1011.3
20260506141007 9 0 0.0 0.0 0.00 0.03 0.00 96 1011.3
20260506140007 8 0 0.0 0.0 0.00 0.03 0.00 96 1011.2
20260506135007 9 0 0.0 0.0 0.00 0.03 0.00 96 1011.2
20260506134007 9 0 0.0 0.0 0.00 0.03 0.00 96 1011.1
20260506132007 8 0 0.0 0.0 0.00 0.03 0.00 10 1011.1
20260506131007 8 0 0.0 0.0 0.00 0.03 0.00 10 1011.1
20260506130007 8 0 0.0 0.0 0.00 0.03 0.00 10 1011.0
20260506125007 8 0 0.0 0.0 0.00 0.03 0.00 10 1011.0
20260506124007 8 0 0.0 0.0 0.00 0.03 0.00 10 1010.9
20260506122007 7 0 0.0 0.0 0.00 0.03 0.00 10 1010.8
20260506121007 7 0 0.0 0.0 0.00 0.03 0.00 10 1010.7
20260506120006 8 0 0.0 0.0 0.00 0.03 0.00 10 1010.6
20260506114007 8 0 0.0 0.0 0.00 0.03 0.00 10 1010.4
20260506113007 7 0 0.0 0.0 0.00 0.03 0.00 10 1010.4
20260506112008 7 0 0.0 0.0 0.00 0.03 0.00 10 1010.3
20260506111007 7 0 0.0 0.0 0.00 0.03 0.00 10 1010.3
20260506110007 7 0 0.0 0.0 0.00 0.03 0.00 10 1010.3
20260506105007 7 0 0.0 0.0 0.00 0.03 0.00 10 1010.3
20260506104007 7 0 0.0 0.0 0.00 0.03 0.00 10 1010.2
20260506101007 7 0 0.0 0.0 0.00 0.03 0.00 10 1010.2